FW2015 Weather Reports


time (UTC)temp
F
wind
direction
speed
knots
gust
knots
rain 1hr
in
rain 24hr
in
rain mn
in
humidity
%
barometer
mb
20260504194546 56 219 11.3 17.4 0.00 0.00 0.00 82 1010.5
20260504193037 57 233 10.4 18.2 0.00 0.00 0.00 81 1010.6
20260504191539 57 160 9.6 18.2 0.00 0.00 0.00 80 1010.8
20260504190030 57 157 10.4 17.4 0.00 0.00 0.00 80 1011.0
20260504184533 58 192 11.3 17.4 0.00 0.00 0.00 78 1011.3
20260504183027 58 218 11.3 17.4 0.00 0.00 0.00 78 1011.4
20260504181531 58 177 8.7 15.6 0.00 0.00 0.00 79 1011.4
20260504180024 57 203 10.4 20.0 0.00 0.00 0.00 79 1011.8
20260504174522 57 179 9.6 17.4 0.00 0.00 0.00 80 1012.0
20260504173021 57 205 9.6 17.4 0.00 0.00 0.00 80 1012.0
20260504171519 57 232 10.4 17.4 0.00 0.00 0.00 81 1012.2
20260504140111 56 168 7.8 15.6 0.00 0.00 0.00 79 1013.7
20260504081519 52 266 8.7 13.0 0.00 0.00 0.00 75 1014.6
20260504044554 52 250 6.1 10.4 0.00 0.00 0.00 68 1013.7
20260504043050 52 229 6.1 12.2 0.00 0.00 0.00 63 1013.6
20260504041546 52 235 7.8 13.9 0.00 0.00 0.00 60 1013.5
20260504040046 52 256 7.0 13.9 0.00 0.00 0.00 61 1013.4
20260504034542 52 264 7.8 13.0 0.00 0.00 0.00 62 1013.2
20260504033049 53 261 6.1 11.3 0.00 0.00 0.00 63 1013.1
20260504031538 53 264 7.0 12.2 0.00 0.00 0.00 60 1013.2
20260504030038 53 257 7.8 13.0 0.00 0.00 0.00 57 1013.1
20260504024552 53 260 6.1 10.4 0.00 0.00 0.00 60 1013.1
20260504023036 53 243 7.0 9.6 0.00 0.00 0.00 60 1013.1
20260504021545 54 236 7.0 11.3 0.00 0.00 0.00 56 1013.1
20260504020036 54 265 6.1 10.4 0.00 0.00 0.00 58 1013.1
20260504014535 55 264 7.0 11.3 0.00 0.00 0.00 58 1013.0
20260504013038 55 274 7.0 10.4 0.00 0.00 0.00 55 1013.0
20260504011532 55 221 7.0 10.4 0.00 0.00 0.00 54 1012.7
20260504010030 55 264 5.2 8.7 0.00 0.00 0.00 57 1012.3
20260504004540 56 238 4.3 7.8 0.00 0.00 0.00 55 1012.3
20260504003028 55 262 3.5 7.8 0.00 0.00 0.00 53 1012.1
20260504001528 56 264 5.2 8.7 0.00 0.00 0.00 50 1012.0
20260504000027 56 248 4.3 7.8 0.00 0.00 0.00 53 1011.7
20260503234529 57 266 3.5 10.4 0.00 0.00 0.00 46 1011.6
20260503233030 58 273 2.6 9.6 0.00 0.00 0.00 44 1011.5
20260503231526 58 349 6.1 13.9 0.00 0.00 0.00 46 1011.4
20260503230026 58 295 8.7 16.5 0.00 0.00 0.00 40 1011.4
20260503224524 58 294 10.4 19.1 0.00 0.00 0.00 43 1011.3
20260503223023 58 295 13.0 19.1 0.00 0.00 0.00 42 1011.2
20260503221522 58 280 12.2 19.1 0.00 0.00 0.00 44 1011.1
20260503220020 58 311 15.6 21.7 0.00 0.00 0.00 40 1011.0
20260503214519 58 324 13.0 22.6 0.00 0.00 0.00 39 1011.0
20260503213019 58 286 14.8 23.5 0.00 0.00 0.00 45 1010.8
20260503211520 57 296 13.0 23.5 0.00 0.00 0.00 42 1010.9
20260503210016 57 322 9.6 16.5 0.00 0.00 0.00 45 1010.8
20260503204514 57 287 15.6 22.6 0.00 0.00 0.00 42 1010.8
20260503203014 56 297 14.8 21.7 0.00 0.00 0.00 38 1010.6
20260503201510 56 291 13.0 20.9 0.00 0.00 0.00 41 1010.7
20260503200010 56 314 11.3 27.8 0.00 0.00 0.00 44 1010.8